Location: ???????
(55.3754°N, 39.3545°E)
Time: 08:21:11
(UTC+00:00)

ALOS 2 - Pass Details

Date: 14 April 2026
Orbit: 630 x 632 km, 97.9° (Epoch: 9 May)

Event Time Altitude Azimuth Distance (km) Brightness Sun altitude
Exits shadow 21:54:05 21° 278° (W) 1,442 4.4 -24.6°
Drops below altitude 10° 21:57:01 10° 320° (NW) 2,026 5.7 -24.6°
Sets 21:59:43 0° 336° (NNW) 2,940 6.9 -24.5°
